User: anonymous   Login
Location: Cimarron National Grasslands
(37.1250°N, 101.7500°W)
Time: 03:15:46
(UTC-06:00)
Language:

Ariane Rocket - Orbit

View from above orbital plane
View from above orbital plane
View from above satellite
View from above satellite

Ground track
Ground track

The orbit data is extracted from the following two-line orbital elements,

1 23561U 95021B   14326.94859126  .00000391  00000-0  14614-3 0  9222
2 23561 098.7044 294.7904 0007728 147.4552 279.9332 14.37397763 26584
Epoch (UTC): 22 November 2014 22:45:58
Eccentricity: 0.0007728
inclination: 98.7044°
perigee height: 761 km
apogee height: 772 km
right ascension of ascending node: 294.7904°
argument of perigee: 147.4552°
revolutions per day: 14.37397763
mean anomaly at epoch: 279.9332°
orbit number at epoch: 2658

The dashed part of the orbit path shows where the satellite is in the earth's shadow,  

DLR